Cincinnati, OH

6:02 AM EST on February 10, 2016 (GMT -0500)
Mt Adams | | Change Station
CLOSE
Current Station
Personal Weather Station
Location: Cincinnati, OH
Elevation: 797 ft
Nearby Weather Stations
Active Advisory: Winter Weather Advisory Active Notice: Local Storm Report

Elev 797 ft 39.11 °N, 84.50 °W | Updated 5 seconds ago

Overcast
Overcast
16.0 °F
Feels Like 7 °F
N
6.3
Wind Variable Wind from NNW
Gusts 11.4 mph

Today
High -- | Low -- °F
--% Chance of Precip.
Yesterday
High -- | Low -- °F
Precip. -- in
Pressure 30.01 in
Visibility 9.0 miles
Clouds Few 2700 ft
Mostly Cloudy 3400 ft
Overcast 8000 ft
Windchill 7 °F
Dew Point 12 °F
Humidity 82%
Rainfall 0.00 in
Snow Depth Not available.
7:35 AM 6:08 PM
Waxing Crescent, 5% visible
METAR KLUK 101053Z AUTO 26014KT 9SM FEW027 BKN034 OVC080 M08/M13 A2999 RMK AO2 SNB38E48 SLP162 P0000 T10831128
Pressure 30.01 in
Visibility 9.0 miles
Clouds Few 2700 ft
Mostly Cloudy 3400 ft
Overcast 8000 ft
Windchill 7 °F
Dew Point 12 °F
Humidity 82%
Rainfall 0.00 in
Snow Depth Not available.
7:35 AM 6:08 PM
Waxing Crescent, 5% visible
METAR KLUK 101053Z AUTO 26014KT 9SM FEW027 BKN034 OVC080 M08/M13 A2999 RMK AO2 SNB38E48 SLP162 P0000 T10831128

10-Day Weather Forecast

Almanac

Astronomy

Feb. 10, 2016 Rise Set
Actual Time
Civil Twilight
Nautical Twilight
Astronomical Twilight
Moon
Length of Visible Light
Length of Day
Tomorrow will be .
, % of the Moon is Illuminated

Today's Extremes

State Highs State Lows

Community

WunderPhotos

Upload Photos

1,891,830 photos uploaded!

WunderBlog® & News

Nearby

Air Quality

  Air Quality AQ Index Pollutant
Not available.

Snow Depth

Station Depth Elevation

Earthquake Activity

City Distance Mag. Time & Date
Minimum magnitude displayed is 2.5.

Coastal Water Temperatures

Place Temperature

Stations

Nearby Weather Stations

Station Location Temp. Windchill Dew Point Humidity Wind Precip. Elev Updated Type
                   

Watches & Warnings

Winter Weather Advisory
Issued: 3:51 AM EST Feb. 10, 2016 – National Weather Service

... Winter Weather Advisory remains in effect until 10 am EST this
morning...

* timing... scattered snow showers through this morning.

* Accumulations... snow accumulations of up to 1 inch.

* Impacts... travel difficulties are expected due to reduced
visibilities and snow accumulations.

Precautionary/preparedness actions...

Remember... a Winter Weather Advisory for snow means that periods
of snow will cause primarily travel difficulties. Be prepared for
snow covered roads and limited visibilities... and use caution
while driving. Stay tuned to NOAA Weather Radio or your favorite
source of information for the latest updates. Additional details
can also be found at www.Weather.Gov/iln as well as on our
facebook and twitter pages.